Погода в Лесном

Россия / Тверская область     58°17′08″N   35°31′34″E
темп.,
°C
ветер,
м/с
пор.,
м/с
влажн.,
%
обл.,
%
осадки,
мм/ч
давл.,
гПа
погр.,
м
7 мая, пт
пт700:00+6юз5118399 0.1 10011149
03:00+4юз51287100 0.1 1003905
06:00+5юз4108576 0.1 10041012
09:00+6юз5972100 0.2 10051181
12:00+9юз61054100 0.2 10062004
15:00+11юз5104492 0.6 10062530
18:00+11ююз485314 0.1 10071638
21:00+6ююз397698 0.2 1008229
8 мая, сб
сб800:00+5ююв3983100 0.0 1008230
03:00+5юв31287100 0.0 1006363
06:00+6ююв51294100 1.5 10051162
09:00+7ю51194100 2.3 1004856
12:00+7ю3797100 0.8 1004498
15:00+7зсз4589100 1.0 1005594
18:00+7сз4682100 0.1 1006873
21:00+5ссз2790100 0.1 1007260
9 мая, вс
вс900:00+2ссз41294100 0.0 1009696
03:00+2ссз4119160 0.0 1010584
06:00+3ссз5981100 0.0 1012910
09:00+7ссз586281 0.0 10131298
12:00+10ссз694158 0.0 10152014
15:00+12ссз5835100 0.0 10162737
18:00+12сз36425 0.0 10182401
21:00+5зсз246886 0.0 102169
10 мая, пн
пн1000:00+3з22716 0.0 102320
03:00+3юз227710 0.0 102527
06:00+4ююз287248 0.0 1026177
09:00+11ююз475075 0.0 1027678
12:00+11ююз4958100 0.0 1027775
15:00+16юз46475 0.0 10271165
18:00+17юз35545 0.0 10271272
21:00+10ююз25806 0.0 102875
11 мая, вт
вт1100:00+8юз2387100 0.0 102944
03:00+8ююз238979 0.0 103042
06:00+8ююз2684100 0.0 1030142
09:00+14ююз246171 0.0 1031432
12:00+19ю3447100 0.0 10301190
15:00+20ю334341 0.0 10291476
18:00+19ююв23511 0.0 10281078
21:00+12ююв268334 0.0 1028109